159  
ASUS46 KOTX 141710  
RWROTX  
 
EASTERN WASHINGTON/NORTHERN IDAHO ROUNDUP  
NATIONAL WEATHER SERVICE, SPOKANE WA  
1000 AM PDT FRI AUG 14 2020  
 
NOTE: "FAIR" INDICATED FEW OR NO CLOUDS BELOW 12,000 FEET WITH NO  
SIGNIFICANT WEATHER AND/OR S TO VISIBILITY
.  
   
..NORTHEAST WASHINGTON AND NORTHERN IDAHO PANHANDLE
 
 
 
CITY SKY/WX TMP DP RH WIND PRES REMARKS
 
SPOKANE INTL MOSUNNY 68 34 28 S6 30.19S  
SPOKANE DOWNTO SUNNY 66 38 35 N3 30.19S  
COEUR D ALENE SUNNY 66 41 40 S9 30.20S  
DEER PARK SUNNY 65 36 34 S3 30.20R  
SANDPOINT SUNNY 64 43 45 CALM 30.19S  
BONNERS FERRY FAIR 61 43 51 S3 30.19S  
   
..SOUTHEAST WASHINGTON AND SOUTHERN IDAHO PANHANDLE
 
 
 
CITY SKY/WX TMP DP RH WIND PRES REMARKS
 
WALLA WALLA SUNNY 71 35 26 S7 30.17S  
PULLMAN/MOSCOW SUNNY 67 35 30 SE7 30.23R  
LEWISTON SUNNY 66 38 35 VRB3 30.20S  
LOWELL N/A 64 45 49 N3 30.22F  
GRANGEVILLE FAIR 64 32 29 CALM 30.24S  
   
..COLUMBIA BASIN
 
 
 
CITY SKY/WX TMP DP RH WIND PRES REMARKS
 
EPHRATA SUNNY 71 39 31 CALM 30.15S  
MOSES LAKE SUNNY 71 41 33 CALM 30.16S  
PASCO SUNNY 72 45 37 N3 30.16S  
RICHLAND SUNNY 73 40 30 CALM 30.15F  
HERMISTON N/A 70 42 36 W6 30.15F  
PENDLETON SUNNY 70 35 27 VRB3 30.18R  
   
..EAST SLOPES CASCADES
 
 
 
CITY SKY/WX TMP DP RH WIND PRES REMARKS
 
THE DALLES SUNNY 69 47 45 NW9 30.15F  
YAKIMA SUNNY 72 38 29 VRB3 30.16S  
ELLENSBURG SUNNY 68 42 38 E6 30.17S  
STAMPEDE PASS SUNNY 59 36 42 VRB7 30.26S  
WENATCHEE SUNNY 67 42 40 SW5 30.15S  
OMAK SUNNY 71 38 29 NE7 30.14F  
SUNNYSIDE SUNNY 67 41 39 CALM 30.16S  
   
..SOUTHERN BRITISH COLUMBIA
 
 
 
CITY SKY/WX TMP DP RH WIND PRES REMARKS
 
PENTICTON MOSUNNY 70 43 37 N3 30.13F  
CASTLEGAR MOSUNNY 64 45 48 S3 30.16F  
CRANBROOK MOSUNNY 64 39 39 NE6 30.16F  
OSOYOOS N/A 70 41 35 S1 N/A  
CRESTON N/A 64 46 52 SW2 N/A  
   
..WESTERN MONTANA
 
 
 
CITY SKY/WX TMP DP RH WIND PRES REMARKS
 
KALISPELL SUNNY 65 44 46 SE7 30.18F  
MISSOULA SUNNY 62 40 44 SW3 30.24S  
   
..NEIGHBORING CITIES
 
 
 
CITY SKY/WX TMP DP RH WIND PRES REMARKS
 
SEATTLE SUNNY 67 47 48 NE8 30.23S  
PORTLAND SUNNY 66 50 56 VRB5 30.17F  
BOISE SUNNY 71 36 27 MISG 30.19S  
GREAT FALLS SUNNY 70 31 23 SW10G18 30.14F  
CALGARY MOSUNNY 64 37 36 SW7 30.07S  
 
CLICK HERE TO GO TO PREVIOUS BULLETINS.

The Nexlab WA Page
The Nexlab ID Page Main Text Page